Theta_e
292 289 287 288 288 285 286 284 282 285 289 289 289 288 291 293 291 292 293 294 294 294 296 296 297 297 297 305 313 319 325 330 332 330 329 329 328 329 330 330 328 324 322 318
289 285 290 290 288 287 285 285 284 286 288 288 286 288 290 291 292 293 293 292 292 292 294 296 296 296 296 297 306 313 319 325 330 331 330 331 330 330 330 330 329 326 323 320
286 287 290 289 285 286 284 284 283 284 285 285 284 285 285 288 288 290 291 291 291 291 291 292 294 295 296 295 296 306 314 320 327 330 331 327 329 327 328 328 328 327 324 322
287 288 287 286 284 285 282 287 286 285 284 280 283 278 283 285 287 288 290 291 291 292 293 295 296 298 298 298 297 296 304 314 322 327 328 326 325 325 328 329 330 328 326 323
285 287 286 285 286 287 285 287 286 284 282 281 281 279 282 283 286 287 289 291 293 293 294 295 295 296 297 298 299 302 298 304 314 323 326 326 326 327 326 329 328 327 325 325
286 289 289 288 287 288 288 285 284 282 280 277 279 280 279 282 284 285 288 292 293 293 294 294 295 296 296 297 299 305 307 307 311 318 322 324 325 320 319 319 325 324 323 324
284 286 288 289 286 288 285 283 278 277 275 276 278 278 281 284 285 286 289 294 293 292 293 294 294 295 295 296 297 299 304 307 311 315 317 320 321 318 319 318 321 320 318 314
281 279 287 290 287 286 284 284 279 273 273 275 279 277 282 287 290 291 292 293 292 292 293 293 293 294 295 296 297 298 298 299 304 310 312 314 315 315 314 315 314 314 314 314
280 281 287 287 288 290 284 282 283 277 267 273 278 281 285 287 289 290 291 291 291 291 292 292 293 293 295 295 296 297 298 298 299 300 304 306 308 310 310 310 310 310 309 308
286 280 286 287 288 287 285 286 281 278 270 269 276 277 280 285 288 290 290 291 291 291 291 291 291 292 293 294 295 297 297 297 298 299 299 300 301 302 304 304 305 304 304 303
286 284 283 286 285 283 283 282 281 282 279 273 270 277 282 284 288 290 290 291 290 290 291 291 292 292 292 293 293 294 295 295 296 297 298 298 298 299 300 300 300 301 301 301
287 284 280 283 285 286 284 283 283 279 276 277 277 279 287 286 289 291 291 290 290 291 291 291 292 291 291 292 292 292 292 293 293 295 295 295 295 296 296 296 296 297 297 297
288 282 274 279 282 284 282 283 284 282 281 277 276 281 287 288 289 290 290 290 291 290 290 290 290 290 290 290 290 290 290 290 291 292 292 291 291 292 292 292 293 293 294 294
293 283 282 279 280 284 282 283 284 284 278 282 279 282 285 288 289 290 290 290 289 289 290 289 289 289 290 289 289 289 289 289 289 290 289 289 289 289 289 290 289 290 290 290
290 280 281 282 284 283 282 283 283 284 286 281 285 282 285 290 290 290 290 289 289 289 289 289 289 289 289 289 289 289 289 288 288 288 288 287 287 287 287 287 287 287 287 287
291 280 283 278 284 284 279 284 284 286 287 286 283 283 286 293 290 289 289 289 288 288 289 289 289 289 289 289 288 288 287 287 287 287 286 286 286 285 285 285 285 286 286 286
288 283 280 277 282 283 280 284 283 284 285 286 283 288 289 287 290 289 288 288 288 288 288 289 289 289 289 288 288 287 286 286 285 285 284 284 284 283 284 284 284 284 284 284
285 285 285 281 283 276 284 283 286 287 287 287 287 287 289 290 290 289 288 287 287 287 287 288 288 289 288 287 286 285 285 285 285 284 283 283 283 282 282 282 282 282 282 282
290 285 281 279 278 281 281 282 284 284 286 289 289 287 286 286 286 284 286 286 286 286 286 287 288 287 286 285 284 284 284 284 283 283 282 282 281 279 280 279 280 281 280 281
287 287 282 278 276 271 279 280 285 288 280 282 290 287 285 285 285 283 285 285 285 285 285 285 286 285 283 283 283 283 282 281 281 281 281 281 280 276 277 278 278 279 277 280
281 283 280 279 278 277 283 282 285 276 279 279 283 285 286 284 285 285 285 284 285 284 285 284 282 282 281 282 281 280 280 280 280 279 279 278 278 276 277 276 276 277 276 277
281 281 281 280 278 275 279 282 282 282 280 280 281 282 282 281 282 282 282 282 283 283 281 280 279 280 280 280 279 278 278 278 278 278 279 278 274 276 277 272 274 274 273 275
279 282 281 283 281 282 279 280 283 284 281 280 281 281 282 280 280 281 281 281 281 281 279 277 276 277 277 276 276 274 275 276 276 275 273 276 276 275 276 276 276 276 276 278
276 279 278 280 281 280 280 280 282 282 282 282 282 282 282 280 281 281 281 281 279 277 276 274 273 273 273 272 272 270 272 271 267 267 269 272 272 274 276 280 280 278 278 277
277 278 275 275 278 279 280 280 282 281 281 281 281 281 281 281 280 280 278 276 275 274 272 272 271 271 270 270 268 267 268 265 264 266 269 270 272 272 273 275 278 279 281 280
277 277 277 275 281 281 281 281 281 280 280 280 279 278 279 280 278 276 274 273 271 270 269 269 268 267 266 265 265 265 263 261 260 263 267 268 269 270 271 272 274 281 284 284
Wind_Speed
3 4 7 8 5 4 8 5 4 2 1 2 5 7 11 8 5 9 10 10 9 9 6 5 7 6 7 8 12 15 14 15 12 10 9 9 9 9 7 7 10 11 10 10
6 5 5 8 6 7 4 6 3 1 2 2 4 11 11 8 8 7 7 8 9 7 9 6 5 4 6 6 10 10 13 13 14 11 12 9 9 8 9 7 9 11 11 11
7 2 9 7 4 7 1 6 4 3 2 3 4 8 7 5 4 5 3 5 4 7 10 7 7 5 3 4 6 8 11 11 13 13 8 4 2 2 6 8 8 10 12 12
4 2 7 7 4 6 6 6 6 5 4 4 3 6 7 5 10 5 4 3 5 6 4 3 5 6 5 5 4 5 6 9 10 11 10 15 12 11 8 8 7 7 11 11
6 9 6 4 5 6 4 6 6 4 4 2 3 2 9 3 7 4 2 5 5 5 4 5 5 5 5 6 5 3 4 5 5 9 11 11 11 7 2 5 9 8 9 12
3 1 3 5 4 2 10 7 8 5 3 2 5 5 7 5 6 2 2 4 6 6 5 5 5 6 5 6 6 5 4 1 4 6 8 11 11 5 4 3 6 6 5 7
2 2 1 4 8 4 2 7 3 3 2 7 2 1 10 5 5 3 4 5 6 5 5 5 7 7 6 7 7 6 6 5 4 3 4 5 6 6 7 7 5 4 4 3
8 4 8 4 6 10 7 7 7 9 6 3 2 8 8 3 2 0 2 4 5 6 5 6 6 6 6 7 7 6 7 7 6 6 4 3 3 2 2 3 2 2 2 2
6 3 1 2 4 6 6 5 6 9 3 4 5 7 11 1 2 3 4 6 5 6 5 6 6 6 6 6 6 6 7 7 7 6 5 5 4 4 3 2 2 1 2 2
8 4 2 1 2 3 4 9 4 3 4 4 5 6 7 4 8 6 4 5 5 5 6 6 6 6 6 5 4 7 7 8 6 6 5 5 4 5 4 3 1 1 2 2
6 5 1 4 7 9 4 3 4 5 5 7 2 8 7 6 8 9 7 5 4 4 4 5 6 6 6 6 7 8 9 9 8 7 6 7 6 5 4 5 4 3 3 3
7 5 5 9 2 1 1 7 7 7 6 2 3 10 1 6 8 8 7 7 5 4 4 5 6 6 8 8 8 9 8 9 8 6 5 7 6 6 6 5 4 4 4 3
9 4 4 6 4 2 5 4 4 5 4 8 7 11 4 5 7 6 8 6 6 5 5 5 6 6 6 6 6 6 7 6 5 5 7 8 8 7 7 6 6 5 5 4
2 3 11 16 3 9 7 7 8 6 4 10 9 5 3 6 8 7 6 6 6 5 5 5 5 5 5 4 5 4 6 5 5 6 6 6 6 5 5 4 5 5 5 5
4 7 4 1 4 4 4 8 12 15 23 10 22 11 11 15 14 10 8 7 7 6 6 5 4 5 4 5 5 5 6 6 5 6 7 6 5 4 4 5 5 4 4 4
1 2 3 3 4 5 1 5 14 21 23 16 3 9 5 13 6 7 9 9 8 7 6 6 5 5 4 3 3 5 5 5 6 6 6 5 6 6 7 8 8 8 8 8
4 6 4 5 6 6 5 20 11 7 10 14 16 25 9 5 13 13 10 10 10 8 6 6 5 3 3 4 4 5 4 4 5 6 6 6 6 6 5 5 4 5 6 5
3 4 3 3 6 9 6 1 10 19 8 13 6 5 12 9 5 8 6 9 9 8 6 6 4 3 4 3 4 3 5 5 5 5 5 6 7 7 7 7 6 5 3 5
6 3 2 4 5 7 2 5 8 11 17 18 19 5 4 10 7 5 4 4 6 7 6 4 3 2 3 5 5 6 6 6 6 6 6 5 5 6 7 8 8 7 5 5
5 5 4 2 3 9 5 2 4 5 8 6 14 12 14 7 8 5 7 7 7 7 5 6 5 4 6 5 5 5 6 6 6 6 7 6 5 3 5 6 7 3 3 7
5 6 10 7 4 8 7 4 2 6 8 1 4 7 14 6 2 10 9 6 6 6 7 6 6 5 5 5 6 7 5 6 6 6 6 5 5 5 5 6 3 4 7 7
9 9 6 5 7 11 4 3 9 4 3 3 4 5 12 11 11 10 9 7 7 7 7 7 6 5 6 6 7 7 6 8 7 9 10 9 6 6 5 5 5 5 5 7
4 5 6 9 7 3 3 3 3 1 5 2 8 8 13 11 8 8 7 7 6 7 6 5 4 3 4 5 5 6 7 8 9 9 9 9 8 6 5 6 7 6 6 7
4 1 3 3 2 1 0 1 3 4 7 6 7 8 6 9 7 7 6 6 6 4 4 2 4 5 4 5 5 3 7 8 7 8 9 8 7 8 6 5 5 7 7 7
4 6 5 3 1 2 2 1 4 5 6 8 7 5 7 9 6 6 5 5 4 4 3 3 4 4 6 7 7 5 6 6 7 7 7 7 6 7 9 7 7 7 7 7
5 7 6 7 10 5 6 8 7 8 6 7 8 5 4 5 6 4 4 4 3 4 3 3 3 3 4 5 6 5 4 5 6 8 6 7 7 7 7 8 10 14 16 16
Wind_Direction
22 103 186 182 175 126 130 126 164 216 359 224 245 268 268 281 263 256 263 271 270 266 282 254 255 256 233 224 209 206 197 199 198 199 194 193 198 193 194 192 185 184 185 185
54 208 202 116 133 110 117 122 211 36 14 184 0 288 265 257 248 234 241 267 275 288 298 311 327 280 223 233 216 210 209 197 197 202 206 206 199 203 200 191 186 186 184 185
143 209 142 119 137 119 116 147 186 171 57 34 340 298 314 298 275 280 255 260 291 281 288 310 333 333 322 249 225 208 209 203 199 201 195 187 149 119 185 194 190 194 189 187
156 130 138 117 172 126 169 191 145 128 90 233 351 278 293 301 302 284 289 26 348 356 6 12 9 21 14 348 318 239 215 203 200 189 190 204 209 207 205 198 195 188 192 196
206 160 144 133 199 159 187 126 126 88 102 70 311 66 270 4 282 270 157 8 359 349 342 14 27 17 19 7 357 327 224 208 191 194 199 200 209 216 172 190 175 184 191 200
98 50 146 154 67 55 155 84 57 61 83 310 234 168 272 205 218 173 321 358 354 347 3 30 29 27 20 10 15 13 53 76 192 184 190 195 206 167 160 162 186 183 189 202
77 170 161 138 90 33 87 94 38 9 353 227 345 183 248 250 237 223 304 358 0 7 39 36 26 22 20 23 19 16 30 46 50 148 171 186 185 173 187 185 200 165 184 191
149 213 172 182 173 168 192 156 152 194 200 247 51 234 249 166 58 94 60 55 43 38 30 33 25 27 28 26 28 38 50 40 33 51 67 79 112 137 147 160 169 172 188 185
139 243 293 126 154 150 194 191 155 107 27 52 218 284 300 313 160 112 103 81 58 46 34 32 32 37 38 42 41 49 56 54 46 44 57 62 69 86 105 99 100 173 222 239
201 121 345 156 108 41 161 158 90 3 133 244 272 271 237 203 190 167 136 102 67 43 36 36 31 33 34 35 41 51 61 64 55 59 57 68 57 60 69 85 82 218 237 239
146 116 286 131 214 166 141 177 65 122 147 172 223 255 217 215 170 168 165 126 109 91 74 57 48 39 45 49 41 46 48 46 46 44 39 45 42 36 48 60 35 335 328 317
186 124 165 200 245 259 301 186 154 147 214 241 155 255 315 234 175 157 155 134 127 114 96 79 63 51 46 45 39 43 39 47 35 37 59 56 44 37 36 37 22 352 330 327
181 205 74 354 335 7 206 197 138 109 84 196 145 253 9 92 137 169 149 153 145 132 104 87 71 59 53 49 47 49 46 45 45 46 48 43 33 24 24 12 8 2 350 346
83 129 195 215 196 136 190 187 178 151 153 213 229 240 200 200 189 193 155 156 147 134 119 100 82 78 69 54 52 45 49 30 38 57 63 54 35 22 17 5 7 1 345 342
162 198 179 125 113 121 178 175 185 200 224 184 244 225 200 199 195 193 167 157 152 144 122 111 99 85 65 49 24 29 41 23 19 47 48 36 19 6 0 6 3 342 348 334
43 148 124 314 128 92 324 236 205 211 227 232 238 254 140 197 134 158 170 164 160 156 142 126 107 90 74 53 37 40 27 17 19 39 33 13 14 5 6 360 357 357 354 354
160 142 120 258 125 91 299 229 190 210 215 207 222 243 150 164 181 188 168 167 164 157 147 128 118 107 74 35 21 35 12 10 26 34 22 11 2 1 357 336 338 344 340 333
145 138 135 180 126 225 237 5 197 206 209 213 260 191 180 183 146 132 162 152 152 150 139 123 102 78 60 34 27 6 18 23 20 25 19 9 2 354 344 340 345 339 324 334
155 102 169 187 205 313 243 191 158 170 241 213 223 139 107 115 78 45 126 118 132 125 114 110 96 80 42 30 7 17 19 15 18 11 359 356 348 341 341 336 333 326 326 325
167 151 157 145 189 209 251 212 201 137 281 220 186 168 152 152 162 189 155 125 109 105 98 90 68 60 45 14 18 37 24 16 11 352 332 323 318 312 313 301 306 282 297 301
167 188 203 195 239 285 244 200 243 116 240 145 153 142 160 168 256 130 132 109 113 107 90 76 64 68 30 25 26 32 13 14 333 317 311 313 317 313 290 298 291 292 306 302
165 181 192 183 206 245 173 67 171 214 14 154 105 116 108 112 96 102 109 110 110 104 72 47 60 52 24 38 29 12 8 342 335 333 326 321 311 309 301 282 287 288 284 295
197 192 182 187 201 193 215 222 303 221 131 131 115 114 123 116 118 118 119 112 96 97 81 49 42 69 47 42 33 360 344 338 333 321 309 304 300 282 277 299 304 308 298 296
263 201 177 95 205 204 167 248 196 156 124 112 107 113 111 122 128 117 114 110 103 84 75 48 29 17 13 21 13 328 330 337 329 313 302 297 291 298 292 294 282 289 291 287
180 128 162 285 331 71 293 221 145 98 99 102 78 96 119 118 116 119 122 121 114 100 61 38 32 6 347 354 340 332 339 326 302 288 296 301 303 309 309 295 292 276 261 244
188 169 172 218 193 162 190 170 149 133 145 139 124 99 66 94 117 107 94 66 51 30 25 17 1 328 305 313 309 319 335 328 320 319 317 314 309 305 300 298 299 275 272 286